| time (UTC) | temp C | wind direction | speed KPH | gust KPH | rain 1hr cm | rain 24hr cm | rain mn cm | humidity % | barometer mb |
| 20260502230841 | 16 | 0.0 | 0.0 | 0.00 | 0.00 | 0.00 | 54 | 1016.4 | |
| 20260502225400 | 16 | 0.0 | 0.0 | 0.00 | 0.00 | 0.00 | 54 | 1016.4 | |
| 20260502224049 | 16 | 0.0 | 0.0 | 0.00 | 0.00 | 0.00 | 53 | 1016.4 | |
| 20260502222706 | 16 | 0.0 | 0.0 | 0.00 | 0.00 | 0.00 | 51 | 1016.5 | |
| 20260502221029 | 17 | 0.0 | 0.0 | 0.00 | 0.00 | 0.00 | 51 | 1016.4 | |
| 20260502215436 | 17 | 0.0 | 0.0 | 0.00 | 0.00 | 0.00 | 51 | 1016.4 | |
| 20260502213712 | 17 | 0.0 | 0.0 | 0.00 | 0.00 | 0.00 | 53 | 1016.5 | |
| 20260502212414 | 17 | 0.0 | 0.0 | 0.00 | 0.00 | 0.00 | 52 | 1016.5 | |
| 20260502211114 | 17 | 0.0 | 0.0 | 0.00 | 0.00 | 0.00 | 52 | 1016.5 | |
| 20260502205553 | 17 | 0.0 | 0.0 | 0.00 | 0.00 | 0.00 | 52 | 1016.6 | |
| 20260502203839 | 17 | 0.0 | 0.0 | 0.00 | 0.00 | 0.00 | 51 | 1016.6 | |
| 20260502202159 | 17 | 0.0 | 0.0 | 0.00 | 0.00 | 0.00 | 51 | 1016.6 | |
| 20260502201045 | 18 | 0.0 | 0.0 | 0.00 | 0.00 | 0.00 | 51 | 1016.6 | |
| 20260502195600 | 18 | 0.0 | 0.0 | 0.00 | 0.00 | 0.00 | 52 | 1016.5 | |
| 20260502194257 | 18 | 0.0 | 0.0 | 0.00 | 0.00 | 0.00 | 52 | 1016.5 | |
| 20260502192332 | 18 | 0.0 | 0.0 | 0.00 | 0.00 | 0.00 | 50 | 1016.4 | |
| 20260502190539 | 19 | 0.0 | 0.0 | 0.00 | 0.00 | 0.00 | 49 | 1016.3 | |
| 20260502184838 | 20 | 0.0 | 0.0 | 0.00 | 0.00 | 0.00 | 47 | 1016.1 | |
| 20260502183219 | 21 | 0.0 | 0.0 | 0.00 | 0.00 | 0.00 | 44 | 1016.1 | |
| 20260502181641 | 22 | 0.0 | 0.0 | 0.00 | 0.00 | 0.00 | 43 | 1016.2 | |
| 20260502180344 | 22 | 0.0 | 0.0 | 0.00 | 0.00 | 0.00 | 41 | 1016.2 | |
| 20260502164300 | 32 | 0.0 | 0.0 | 0.00 | 0.00 | 0.00 | 26 | 1016.3 | |
| 20260502162637 | 32 | 0.0 | 0.0 | 0.00 | 0.00 | 0.00 | 25 | 1016.5 | |
| 20260502160642 | 34 | 0.0 | 0.0 | 0.00 | 0.00 | 0.00 | 25 | 1016.6 | |
| 20260502151516 | 35 | 0.0 | 0.0 | 0.00 | 0.00 | 0.00 | 25 | 1017.2 | |
| 20260502122639 | 26 | 0.0 | 0.0 | 0.00 | 0.00 | 0.00 | 44 | 1019.3 | |
| 20260502121208 | 24 | 0.0 | 0.0 | 0.00 | 0.00 | 0.00 | 49 | 1019.5 | |
| 20260502115439 | 25 | 0.0 | 0.0 | 0.00 | 0.00 | 0.00 | 48 | 1019.8 | |
| 20260502113908 | 24 | 0.0 | 0.0 | 0.00 | 0.00 | 0.00 | 50 | 1020.0 | |
| 20260502112109 | 22 | 0.0 | 0.0 | 0.00 | 0.00 | 0.00 | 52 | 1020.3 | |
| 20260502110418 | 21 | 0.0 | 0.0 | 0.00 | 0.00 | 0.00 | 52 | 1020.4 | |
| 20260502104811 | 21 | 0.0 | 0.0 | 0.00 | 0.00 | 0.00 | 52 | 1020.5 | |
| 20260502102833 | 20 | 0.0 | 0.0 | 0.00 | 0.00 | 0.00 | 54 | 1020.7 | |
| 20260502101354 | 20 | 0.0 | 0.0 | 0.00 | 0.00 | 0.00 | 55 | 1020.9 | |
| 20260502090844 | 17 | 0.0 | 0.0 | 0.00 | 0.00 | 0.00 | 56 | 1021.5 | |
| 20260502071452 | 14 | 0.0 | 0.0 | 0.00 | 0.00 | 0.00 | 54 | 1022.2 | |
| 20260502065542 | 15 | 0.0 | 0.0 | 0.00 | 0.00 | 0.00 | 54 | 1022.4 | |
| 20260502064828 | 15 | 0.0 | 0.0 | 0.00 | 0.00 | 0.00 | 55 | 1022.4 | |
| 20260502051312 | 11 | 0.0 | 0.0 | 0.00 | 0.00 | 0.00 | 66 | 1022.6 | |
| 20260502045534 | 11 | 0.0 | 0.0 | 0.00 | 0.00 | 0.00 | 66 | 1022.5 | |
| 20260502044150 | 11 | 0.0 | 0.0 | 0.00 | 0.00 | 0.00 | 67 | 1022.3 | |
| 20260502042843 | 11 | 0.0 | 0.0 | 0.00 | 0.00 | 0.00 | 67 | 1022.3 | |
| 20260502041307 | 10 | 0.0 | 0.0 | 0.00 | 0.00 | 0.00 | 67 | 1022.2 | |
| 20260502035416 | 10 | 0.0 | 0.0 | 0.00 | 0.00 | 0.00 | 66 | 1022.0 | |
| 20260502033627 | 11 | 0.0 | 0.0 | 0.00 | 0.00 | 0.00 | 64 | 1022.2 | |
| 20260502032209 | 11 | 0.0 | 0.0 | 0.00 | 0.00 | 0.00 | 64 | 1022.1 | |
| 20260502031049 | 11 | 0.0 | 0.0 | 0.00 | 0.00 | 0.00 | 62 | 1022.2 | |
| 20260502025414 | 11 | 0.0 | 0.0 | 0.00 | 0.00 | 0.00 | 62 | 1022.5 | |
| 20260502023736 | 10 | 0.0 | 0.0 | 0.00 | 0.00 | 0.00 | 65 | 1022.8 | |
| 20260502021935 | 11 | 0.0 | 0.0 | 0.00 | 0.00 | 0.00 | 65 | 1022.3 | |
| 20260502020322 | 11 | 0.0 | 0.0 | 0.00 | 0.00 | 0.00 | 62 | 1022.3 | |
| 20260502014829 | 11 | 0.0 | 0.0 | 0.00 | 0.00 | 0.00 | 63 | 1022.4 | |
| 20260502013649 | 11 | 0.0 | 0.0 | 0.00 | 0.00 | 0.00 | 61 | 1022.4 | |
| 20260502012057 | 11 | 0.0 | 0.0 | 0.00 | 0.00 | 0.00 | 62 | 1022.6 | |
| 20260502010612 | 11 | 0.0 | 0.0 | 0.00 | 0.00 | 0.00 | 62 | 1022.6 | |
| 20260502004736 | 11 | 0.0 | 0.0 | 0.00 | 0.00 | 0.00 | 63 | 1022.7 | |
| 20260502002935 | 11 | 0.0 | 0.0 | 0.00 | 0.00 | 0.00 | 64 | 1022.8 | |
| 20260502001126 | 11 | 0.0 | 0.0 | 0.00 | 0.00 | 0.00 | 63 | 1022.9 | |
| 20260501235714 | 11 | 0.0 | 0.0 | 0.00 | 0.00 | 0.00 | 62 | 1022.7 | |
| 20260501233827 | 12 | 0.0 | 0.0 | 0.00 | 0.00 | 0.00 | 60 | 1022.8 |